Location: Unspecified
(0.0000°N, 0.0000°E)
Time: 01:17:38
(UTC+00:00)

Cosmos 1176 - Visible Passes

Search period start: 01 July 2022 00:00
Search period end: 11 July 2022 00:00
Orbit: 882 x 954 km, 64.8° (Epoch: 30 June)

Date Brightness Start Highest point End Pass type
(mag) Time Alt. Az. Time Alt. Az. Time Alt. Az.
05 Jul8.419:59:28NE19:59:28NE19:45:52Svisible
06 Jul 5.6 19:54:49 10° SSW 20:00:42 76° ESE 20:06:37 10° NNE visible
07 Jul 6.1 20:02:48 10° SSW 20:08:38 64° WNW 20:14:30 10° NNE visible
08 Jul 7.1 18:26:37 10° SSE 18:30:20 17° ESE 18:34:04 10° ENE visible
08 Jul 7.1 20:11:11 10° SW 20:16:34 37° WNW 20:22:00 10° N visible
09 Jul 6.5 18:33:16 10° S 18:38:18 29° ESE 18:43:21 10° NE visible
09 Jul 8.1 20:20:05 10° WSW 20:24:31 22° WNW 20:29:00 10° NNW visible
10 Jul 6.0 18:40:33 10° S 18:46:14 50° ESE 18:51:57 10° NE visible
10 Jul 8.8 20:30:09 10° W 20:32:31 12° WNW 20:34:54 10° NW visible
